This is the latest recevied weather packets stored in our database for station/object SQ9RHX-13. If no packets are shown the sender has not sent any weather packets the latest 10 day(s).
| Time | Temp. | Humidity | Pressure | Rain* | Wind** | Luminosity | Snow |
|---|---|---|---|---|---|---|---|
| 1777645205 | 22.78° C | 33% | 1029.4 hPa | 0 mm | - | 340 W/m² | - |
| 1777644903 | 22.78° C | 32% | 1029.3 hPa | 0 mm | - | 352 W/m² | - |
| 1777644602 | 22.78° C | 33% | 1029.4 hPa | 0 mm | - | 362 W/m² | - |
| 1777644303 | 22.78° C | 33% | 1029.5 hPa | 0 mm | - | 379 W/m² | - |
| 1777644003 | 22.78° C | 33% | 1029.5 hPa | 0 mm | - | 390 W/m² | - |
| 1777643704 | 23.33° C | 31% | 1029.6 hPa | 0 mm | - | 399 W/m² | - |
| 1777643402 | 22.78° C | 33% | 1029.5 hPa | 0 mm | - | 414 W/m² | - |
| 1777643102 | 22.78° C | 32% | 1029.6 hPa | 0 mm | - | 426 W/m² | - |
| 1777642803 | 22.78° C | 32% | 1029.6 hPa | 0 mm | - | 433 W/m² | - |
| 1777642506 | 23.33° C | 33% | 1029.7 hPa | 0 mm | - | 451 W/m² | - |
| 1777642204 | 22.22° C | 33% | 1029.8 hPa | 0 mm | - | 464 W/m² | - |
| 1777641904 | 22.78° C | 32% | 1029.7 hPa | 0 mm | - | 473 W/m² | - |
| 1777641602 | 22.78° C | 32% | 1029.8 hPa | 0 mm | - | 487 W/m² | - |
| 1777641303 | 22.78° C | 33% | 1029.8 hPa | 0 mm | - | 501 W/m² | - |
| 1777641006 | 23.33° C | 32% | 1030 hPa | 0 mm | - | 510 W/m² | - |
| 1777640703 | 23.33° C | 32% | 1030 hPa | 0 mm | - | 519 W/m² | - |
| 1777640403 | 23.33° C | 35% | 1030 hPa | 0 mm | - | 530 W/m² | - |
| 1777640104 | 22.78° C | 33% | 1030.1 hPa | 0 mm | - | 541 W/m² | - |
| 1777639802 | 22.78° C | 33% | 1030.1 hPa | 0 mm | - | 552 W/m² | - |
| 1777639503 | 22.78° C | 32% | 1030.2 hPa | 0 mm | - | 560 W/m² | - |
| 1777639204 | 22.22° C | 33% | 1030.2 hPa | 0 mm | - | 568 W/m² | - |
| 1777638905 | 22.22° C | 32% | 1030.4 hPa | 0 mm | - | 579 W/m² | - |
| 1777638604 | 22.22° C | 33% | 1030.4 hPa | 0 mm | - | 582 W/m² | - |
| 1777638303 | 22.22° C | 35% | 1030.4 hPa | 0 mm | - | 593 W/m² | - |
| 1777638003 | 22.22° C | 32% | 1030.5 hPa | 0 mm | - | 600 W/m² | - |
* Rain latest hour (hover to see other rain measurements)
** Current wind speed in m/s (hover to see current wind gust speed)